^^
Datos históricos de la estación: Murcia-Puente Tocinos
Diario Informe para Enero 22, 2019 Unidades:  Métrico    Inglés   Ambas
Diario Semanal Mensual Anual Configurable
  Máximo: Mínimo: Media:
Temperatura: 13.9 °C 6.5 °C 10.5 °C
Punto de rocio: 2.3 °C -3.1 °C -1.2 °C
Humedad: 53% 35% 45%
Velocidad viento: 19.3km/h 0.0km/h 9.3km/h
Racha viento: 37.0km/h - -
Viento- - WSW
Presión: 1018.6 hPa 1010.5 hPa -
Precipitación: 0.0 mm    
Historical Graphs
 
 
Tabla de datos para Enero 22, 2019
Hora Temperatura Punto de rocio Presión Viento Velocidad viento Racha viento Humedad Intensidad lluvia(por hora) Nubes
00:00 9.3 °C -1.7 °C 1018.4 hPa West 9.7 km/h 17.7 km/h 46% 0.0 mm CLR
00:05 9.3 °C -1.4 °C 1018.4 hPa West 9.7 km/h 16.1 km/h 47% 0.0 mm CLR
00:09 9.3 °C -1.4 °C 1018.4 hPa West 11.1 km/h 16.7 km/h 47% 0.0 mm CLR
00:14 9.2 °C -1.6 °C 1018.4 hPa WNW 11.1 km/h 14.8 km/h 47% 0.0 mm CLR
00:19 9.2 °C -1.6 °C 1018.5 hPa WNW 10.3 km/h 16.7 km/h 47% 0.0 mm CLR
00:25 9.3 °C -1.4 °C 1018.5 hPa West 10.3 km/h 13.0 km/h 47% 0.0 mm CLR
00:29 9.3 °C -1.4 °C 1018.5 hPa SSW 9.5 km/h 13.0 km/h 47% 0.0 mm CLR
00:35 9.3 °C -1.4 °C 1018.6 hPa West 9.7 km/h 11.3 km/h 47% 0.0 mm CLR
00:39 9.3 °C -1.4 °C 1018.6 hPa WSW 6.9 km/h 14.8 km/h 47% 0.0 mm CLR
00:45 9.2 °C -1.6 °C 1018.6 hPa WSW 6.9 km/h 13.0 km/h 47% 0.0 mm CLR
00:49 9.1 °C -1.3 °C 1018.5 hPa WSW 8.7 km/h 11.1 km/h 48% 0.0 mm CLR
00:55 8.9 °C -1.6 °C 1018.5 hPa West 9.7 km/h 16.1 km/h 48% 0.0 mm CLR
00:59 8.9 °C -1.6 °C 1018.5 hPa WNW 8.7 km/h 16.7 km/h 48% 0.0 mm CLR
01:05 9.0 °C -1.4 °C 1018.4 hPa WNW 8.7 km/h 14.8 km/h 48% 0.0 mm CLR
01:10 9.0 °C -1.4 °C 1018.4 hPa West 9.7 km/h 14.5 km/h 48% 0.0 mm CLR
01:15 9.0 °C -1.4 °C 1018.4 hPa West 9.7 km/h 16.1 km/h 48% 0.0 mm CLR
01:20 8.9 °C -1.6 °C 1018.4 hPa West 9.5 km/h 11.1 km/h 48% 0.0 mm CLR
01:25 8.9 °C -1.6 °C 1018.4 hPa West 9.5 km/h 11.1 km/h 48% 0.0 mm CLR
01:29 8.9 °C -1.6 °C 1018.4 hPa West 8.7 km/h 13.0 km/h 48% 0.0 mm CLR
01:35 8.8 °C -1.6 °C 1018.3 hPa WNW 8.7 km/h 9.3 km/h 48% 0.0 mm CLR
01:40 8.8 °C -1.9 °C 1018.3 hPa WNW 8.4 km/h 11.1 km/h 47% 0.0 mm CLR
01:45 8.9 °C -1.8 °C 1018.3 hPa WNW 8.0 km/h 14.5 km/h 47% 0.0 mm CLR
01:49 8.8 °C -1.9 °C 1018.0 hPa NW 10.0 km/h 13.0 km/h 47% 0.0 mm CLR
01:55 8.8 °C -1.9 °C 1018.0 hPa NW 9.7 km/h 12.9 km/h 47% 0.0 mm CLR
02:00 8.7 °C -2.0 °C 1018.0 hPa NW 8.0 km/h 14.5 km/h 47% 0.0 mm CLR
02:05 8.8 °C -1.9 °C 1017.9 hPa NW 8.0 km/h 16.1 km/h 47% 0.0 mm CLR
02:09 8.7 °C -2.0 °C 1017.9 hPa NW 9.5 km/h 13.7 km/h 47% 0.0 mm CLR
02:15 8.7 °C -1.7 °C 1017.9 hPa WSW 9.5 km/h 8.4 km/h 48% 0.0 mm CLR
02:19 8.6 °C -1.8 °C 1017.8 hPa WSW 6.4 km/h 7.4 km/h 48% 0.0 mm CLR
02:25 8.5 °C -1.9 °C 1017.8 hPa West 8.0 km/h 9.7 km/h 48% 0.0 mm CLR
02:29 8.4 °C -2.0 °C 1017.8 hPa WNW 5.0 km/h 11.1 km/h 48% 0.0 mm CLR
02:35 8.6 °C -1.8 °C 1017.7 hPa West 4.8 km/h 14.5 km/h 48% 0.0 mm CLR
02:40 8.6 °C -1.8 °C 1017.7 hPa West 8.0 km/h 12.9 km/h 48% 0.0 mm CLR
02:45 8.4 °C -1.7 °C 1017.7 hPa WSW 8.0 km/h 11.3 km/h 49% 0.0 mm CLR
02:49 8.3 °C -1.6 °C 1017.5 hPa WNW 6.4 km/h 7.4 km/h 50% 0.0 mm CLR
02:55 8.2 °C -1.6 °C 1017.5 hPa West 8.0 km/h 12.9 km/h 50% 0.0 mm CLR
02:59 8.3 °C -1.8 °C 1017.5 hPa West 6.4 km/h 13.0 km/h 49% 0.0 mm CLR
03:05 8.2 °C -1.6 °C 1017.4 hPa West 6.4 km/h 13.0 km/h 50% 0.0 mm CLR
03:09 8.1 °C -1.7 °C 1017.4 hPa WSW 9.5 km/h 16.7 km/h 50% 0.0 mm CLR
03:15 8.1 °C -1.7 °C 1017.4 hPa WSW 9.7 km/h 19.3 km/h 50% 0.0 mm CLR
03:19 8.1 °C -1.7 °C 1017.4 hPa West 9.5 km/h 11.1 km/h 50% 0.0 mm CLR
03:25 8.2 °C -1.9 °C 1017.4 hPa West 9.7 km/h 11.3 km/h 49% 0.0 mm CLR
03:29 8.3 °C -1.8 °C 1017.4 hPa SSW 6.4 km/h 9.3 km/h 49% 0.0 mm CLR
03:34 8.5 °C -1.9 °C 1017.4 hPa SSW 6.4 km/h 7.6 km/h 48% 0.0 mm CLR
03:39 8.7 °C -2.0 °C 1017.4 hPa SSW 6.9 km/h 14.8 km/h 47% 0.0 mm CLR
03:45 8.8 °C -1.8 °C 1017.4 hPa SSW 8.0 km/h 17.7 km/h 47% 0.0 mm CLR
03:49 8.8 °C -1.9 °C 1017.3 hPa West 8.4 km/h 9.3 km/h 47% 0.0 mm CLR
03:55 8.6 °C -1.8 °C 1017.3 hPa West 8.0 km/h 14.5 km/h 48% 0.0 mm CLR
04:00 8.4 °C -2.0 °C 1017.3 hPa WSW 8.0 km/h 11.3 km/h 48% 0.0 mm CLR
04:05 8.3 °C -2.1 °C 1017.4 hPa WSW 6.4 km/h 13.0 km/h 48% 0.0 mm CLR
04:10 8.3 °C -2.1 °C 1017.4 hPa West 5.8 km/h 7.4 km/h 48% 0.0 mm CLR
04:15 8.2 °C -1.9 °C 1017.4 hPa WSW 5.8 km/h 16.7 km/h 49% 0.0 mm CLR
04:19 8.3 °C -2.1 °C 1017.2 hPa NW 7.6 km/h 13.0 km/h 48% 0.0 mm CLR
04:24 8.2 °C -2.2 °C 1017.2 hPa WSW 7.6 km/h 14.8 km/h 48% 0.0 mm CLR
04:29 8.2 °C -2.2 °C 1017.2 hPa South 8.7 km/h 14.8 km/h 48% 0.0 mm CLR
04:35 8.1 °C -2.2 °C 1017.2 hPa WSW 9.7 km/h 16.1 km/h 48% 0.0 mm CLR
04:39 8.2 °C -2.2 °C 1017.2 hPa SW 6.9 km/h 14.8 km/h 48% 0.0 mm CLR
04:45 8.1 °C -2.3 °C 1017.2 hPa NW 6.9 km/h 9.3 km/h 48% 0.0 mm CLR
04:50 8.0 °C -2.1 °C 1016.9 hPa NW 5.8 km/h 3.7 km/h 49% 0.0 mm CLR
04:55 7.9 °C -2.2 °C 1016.9 hPa SE 5.8 km/h 7.4 km/h 49% 0.0 mm CLR
04:59 7.8 °C -2.3 °C 1016.9 hPa SE 4.7 km/h 6.4 km/h 49% 0.0 mm CLR
05:05 7.7 °C -2.1 °C 1016.9 hPa SE 4.7 km/h 7.4 km/h 50% 0.0 mm CLR
05:09 7.7 °C -2.1 °C 1016.9 hPa SSE 3.9 km/h 11.1 km/h 50% 0.0 mm CLR
05:15 7.6 °C -1.9 °C 1016.9 hPa SSE 3.9 km/h 1.9 km/h 51% 0.0 mm CLR
05:19 7.6 °C -2.2 °C 1016.9 hPa SSW 4.7 km/h 9.3 km/h 50% 0.0 mm CLR
05:25 7.5 °C -2.0 °C 1016.9 hPa WNW 4.7 km/h 7.4 km/h 51% 0.0 mm CLR
05:29 7.5 °C -2.3 °C 1016.9 hPa NNW 5.8 km/h 11.1 km/h 50% 0.0 mm CLR
05:35 7.6 °C -2.2 °C 1016.7 hPa WSW 4.8 km/h 8.0 km/h 50% 0.0 mm CLR
05:39 7.4 °C -2.1 °C 1016.7 hPa SE 5.0 km/h 9.3 km/h 51% 0.0 mm CLR
05:45 7.2 °C -2.3 °C 1016.7 hPa SSE 5.0 km/h 9.3 km/h 51% 0.0 mm CLR
05:50 7.2 °C -2.3 °C 1016.7 hPa SSE 8.0 km/h 14.5 km/h 51% 0.0 mm CLR
05:55 7.2 °C -2.3 °C 1016.7 hPa SW 6.9 km/h 11.1 km/h 51% 0.0 mm CLR
06:00 7.2 °C -2.3 °C 1016.7 hPa SW 8.0 km/h 12.9 km/h 51% 0.0 mm CLR
06:05 7.2 °C -2.6 °C 1016.8 hPa SW 8.0 km/h 14.5 km/h 50% 0.0 mm CLR
06:09 7.3 °C -2.4 °C 1016.8 hPa SW 7.6 km/h 11.1 km/h 50% 0.0 mm CLR
06:15 7.4 °C -2.6 °C 1016.8 hPa West 7.6 km/h 11.1 km/h 49% 0.0 mm CLR
06:19 7.4 °C -2.6 °C 1016.9 hPa WNW 8.4 km/h 22.2 km/h 49% 0.0 mm CLR
06:25 7.8 °C -2.8 °C 1016.9 hPa West 8.0 km/h 32.2 km/h 47% 0.0 mm CLR
06:29 8.3 °C -2.7 °C 1016.9 hPa West 14.0 km/h 24.1 km/h 46% 0.0 mm CLR
06:35 8.3 °C -2.7 °C 1016.8 hPa WSW 14.0 km/h 18.5 km/h 46% 0.0 mm CLR
06:39 8.3 °C -2.9 °C 1016.8 hPa West 13.0 km/h 18.5 km/h 45% 0.0 mm CLR
06:45 8.3 °C -2.9 °C 1016.8 hPa West 13.0 km/h 16.7 km/h 45% 0.0 mm CLR
06:50 8.3 °C -2.9 °C 1016.9 hPa WSW 11.1 km/h 13.0 km/h 45% 0.0 mm CLR
06:55 8.3 °C -2.9 °C 1016.9 hPa WSW 11.1 km/h 14.8 km/h 45% 0.0 mm CLR
07:00 8.3 °C -2.9 °C 1016.9 hPa WSW 9.7 km/h 16.1 km/h 45% 0.0 mm CLR
07:05 8.2 °C -2.8 °C 1017.0 hPa WNW 9.5 km/h 7.4 km/h 46% 0.0 mm CLR
07:09 8.1 °C -2.8 °C 1017.0 hPa WNW 5.8 km/h 7.4 km/h 46% 0.0 mm CLR
07:15 7.9 °C -2.7 °C 1017.0 hPa West 5.8 km/h 9.5 km/h 47% 0.0 mm CLR
07:19 8.0 °C -2.9 °C 1016.9 hPa NW 6.4 km/h 25.9 km/h 46% 0.0 mm CLR
07:25 8.3 °C -2.9 °C 1016.9 hPa West 6.4 km/h 20.4 km/h 45% 0.0 mm CLR
07:29 8.4 °C -2.9 °C 1016.9 hPa WNW 16.4 km/h 24.1 km/h 45% 0.0 mm CLR
07:35 8.4 °C -2.9 °C 1017.0 hPa WNW 16.4 km/h 11.1 km/h 45% 0.0 mm CLR
07:40 8.3 °C -2.9 °C 1017.0 hPa WNW 12.9 km/h 16.1 km/h 45% 0.0 mm CLR
07:45 8.1 °C -2.8 °C 1017.0 hPa WNW 12.9 km/h 14.5 km/h 46% 0.0 mm CLR
07:50 7.8 °C -3.1 °C 1017.1 hPa WNW 9.7 km/h 17.7 km/h 46% 0.0 mm CLR
07:55 7.6 °C -3.0 °C 1017.1 hPa NW 9.7 km/h 12.9 km/h 47% 0.0 mm CLR
08:00 7.4 °C -2.9 °C 1017.1 hPa NW 8.0 km/h 9.7 km/h 48% 0.0 mm CLR
08:05 7.3 °C -2.7 °C 1017.1 hPa NW 8.0 km/h 9.7 km/h 49% 0.0 mm CLR
08:10 7.2 °C -2.8 °C 1017.1 hPa WNW 4.7 km/h 7.4 km/h 49% 0.0 mm CLR
08:15 7.1 °C -2.7 °C 1017.1 hPa NW 3.2 km/h 8.0 km/h 50% 0.0 mm CLR
08:20 6.9 °C -2.8 °C 1016.9 hPa WNW 4.7 km/h 3.9 km/h 50% 0.0 mm CLR
08:25 6.9 °C -2.6 °C 1016.9 hPa SSE 4.7 km/h 5.6 km/h 51% 0.0 mm CLR
08:29 6.8 °C -2.4 °C 1016.9 hPa ESE 3.2 km/h 3.7 km/h 52% 0.0 mm CLR
08:35 6.7 °C -2.5 °C 1017.1 hPa ESE 3.2 km/h 3.7 km/h 52% 0.0 mm CLR
08:39 6.6 °C -2.6 °C 1017.1 hPa ESE 2.9 km/h 5.6 km/h 52% 0.0 mm CLR
08:45 6.5 °C -2.7 °C 1017.1 hPa SE 3.2 km/h 8.0 km/h 52% 0.0 mm CLR
08:49 6.7 °C -2.5 °C 1017.1 hPa South 3.9 km/h 5.6 km/h 52% 0.0 mm CLR
08:55 6.8 °C -2.4 °C 1017.1 hPa WNW 3.9 km/h   52% 0.0 mm CLR
09:00 7.0 °C -2.4 °C 1017.1 hPa WNW 1.6 km/h 3.2 km/h 51% 0.0 mm CLR
09:05 7.5 °C -2.3 °C 1017.1 hPa WNW 2.3 km/h 4.7 km/h 50% 0.0 mm CLR
09:09 7.8 °C -2.0 °C 1017.1 hPa ESE 2.9 km/h 5.8 km/h 50% 0.0 mm CLR
09:15 7.8 °C -2.3 °C 1017.1 hPa ESE 2.9 km/h 7.4 km/h 49% 0.0 mm CLR
09:19 7.8 °C -2.3 °C 1017.0 hPa SSE 4.7 km/h 9.3 km/h 49% 0.0 mm CLR
09:25 7.8 °C -2.3 °C 1017.0 hPa SSE 4.7 km/h 3.9 km/h 49% 0.0 mm CLR
09:30 7.7 °C -2.3 °C 1017.0 hPa SSE 3.2 km/h 4.8 km/h 49% 0.0 mm CLR
09:35 7.9 °C -2.2 °C 1017.0 hPa WNW 4.7 km/h 7.4 km/h 49% 0.0 mm CLR
09:40 8.1 °C -2.3 °C 1017.0 hPa WNW 3.2 km/h 8.0 km/h 48% 0.0 mm CLR
09:45 8.2 °C -2.2 °C 1017.0 hPa WNW 3.2 km/h 7.4 km/h 48% 0.0 mm CLR
09:49 8.2 °C -1.9 °C 1016.9 hPa WNW 3.2 km/h 5.6 km/h 49% 0.0 mm CLR
09:55 8.1 °C -2.0 °C 1016.9 hPa WNW 3.2 km/h 8.0 km/h 49% 0.0 mm CLR
10:00 8.1 °C -1.9 °C 1016.9 hPa WNW 3.2 km/h 8.0 km/h 49% 0.0 mm CLR
10:05 8.2 °C -1.9 °C 1016.8 hPa WNW 3.9 km/h 7.6 km/h 49% 0.0 mm CLR
10:09 8.3 °C -1.3 °C 1016.8 hPa NW 3.9 km/h 9.3 km/h 51% 0.0 mm CLR
10:15 8.2 °C -1.3 °C 1016.8 hPa WNW 3.2 km/h 8.0 km/h 51% 0.0 mm CLR
10:20 8.3 °C -1.6 °C 1016.9 hPa West 4.7 km/h 7.4 km/h 50% 0.0 mm CLR
10:25 8.3 °C -1.6 °C 1016.9 hPa WNW 4.7 km/h 5.6 km/h 50% 0.0 mm CLR
10:29 8.3 °C -1.3 °C 1016.9 hPa WNW 3.9 km/h 5.6 km/h 51% 0.0 mm CLR
10:35 8.4 °C -1.2 °C 1016.7 hPa WNW 3.2 km/h 8.0 km/h 51% 0.0 mm CLR
10:39 8.5 °C -1.6 °C 1016.7 hPa WSW 3.9 km/h 3.7 km/h 49% 0.0 mm CLR
10:45 8.6 °C -1.5 °C 1016.7 hPa West 3.2 km/h 8.0 km/h 49% 0.0 mm CLR
10:49 8.6 °C -1.5 °C 1016.5 hPa WNW 3.9 km/h 5.6 km/h 49% 0.0 mm CLR
10:55 8.7 °C -2.0 °C 1016.5 hPa WNW 3.9 km/h 4.7 km/h 47% 0.0 mm CLR
11:00 8.9 °C -1.6 °C 1016.5 hPa WNW 3.2 km/h 4.8 km/h 48% 0.0 mm CLR
11:05 9.0 °C -1.7 °C 1016.4 hPa West 3.2 km/h 6.4 km/h 47% 0.0 mm CLR
11:09 9.1 °C -0.8 °C 1016.4 hPa SSE 2.9 km/h 3.7 km/h 50% 0.0 mm CLR
11:15 9.2 °C -0.7 °C 1016.4 hPa SSE 3.2 km/h 6.4 km/h 50% 0.0 mm CLR
11:19 9.1 °C -0.5 °C 1016.5 hPa SSE 2.9 km/h 3.7 km/h 51% 0.0 mm CLR
11:25 9.2 °C -0.7 °C 1016.5 hPa SSE 3.2 km/h 3.2 km/h 50% 0.0 mm CLR
11:30 9.3 °C -1.2 °C 1016.5 hPa Calm   5.6 km/h 48% 0.0 mm CLR
11:35 9.5 °C -1.3 °C 1016.3 hPa Calm   7.6 km/h 47% 0.0 mm CLR
11:40 9.8 °C -1.3 °C 1016.3 hPa West 5.0 km/h 9.3 km/h 46% 0.0 mm CLR
11:45 10.1 °C -1.6 °C 1016.3 hPa WSW 5.0 km/h 16.7 km/h 44% 0.0 mm CLR
11:49 10.3 °C -1.4 °C 1016.1 hPa West 6.9 km/h 11.1 km/h 44% 0.0 mm CLR
11:55 10.4 °C -1.3 °C 1016.1 hPa West 8.0 km/h 11.3 km/h 44% 0.0 mm CLR
12:00 10.6 °C -1.5 °C 1016.1 hPa WSW 8.0 km/h 12.9 km/h 43% 0.0 mm CLR
12:05 10.9 °C -1.2 °C 1015.9 hPa WSW 6.9 km/h 11.1 km/h 43% 0.0 mm CLR
12:10 11.2 °C -1.3 °C 1015.9 hPa West 6.9 km/h 9.5 km/h 42% 0.0 mm CLR
12:15 11.3 °C -1.5 °C 1015.9 hPa WSW 6.9 km/h 11.1 km/h 41% 0.0 mm CLR
12:20 11.5 °C -1.3 °C 1015.6 hPa WSW 6.9 km/h 7.4 km/h 41% 0.0 mm CLR
12:25 11.7 °C -1.4 °C 1015.6 hPa West 6.9 km/h 18.5 km/h 40% 0.0 mm CLR
12:29 11.8 °C -1.4 °C 1015.6 hPa West 8.7 km/h 11.1 km/h 40% 0.0 mm CLR
12:35 12.0 °C -1.6 °C 1015.3 hPa SSW 8.7 km/h 14.8 km/h 39% 0.0 mm CLR
12:40 12.2 °C -1.7 °C 1015.3 hPa WSW 8.7 km/h 16.7 km/h 38% 0.0 mm CLR
12:45 12.3 °C -2.0 °C 1015.3 hPa West 8.7 km/h 20.4 km/h 37% 0.0 mm CLR
12:50 12.3 °C -2.0 °C 1015.0 hPa WSW 12.2 km/h 20.4 km/h 37% 0.0 mm CLR
12:55 12.3 °C -2.0 °C 1015.0 hPa SW 12.2 km/h 22.2 km/h 37% 0.0 mm CLR
12:59 12.4 °C -1.9 °C 1015.0 hPa SSW 11.9 km/h 23.3 km/h 37% 0.0 mm CLR
13:05 12.4 °C -1.9 °C 1014.7 hPa SW 11.9 km/h 20.4 km/h 37% 0.0 mm CLR
13:10 12.4 °C -1.9 °C 1014.7 hPa WSW 12.9 km/h 20.9 km/h 37% 0.0 mm CLR
13:15 12.4 °C -1.9 °C 1014.7 hPa WSW 13.7 km/h 16.7 km/h 37% 0.0 mm CLR
13:20 12.5 °C -2.2 °C 1014.3 hPa WSW 12.2 km/h 22.2 km/h 36% 0.0 mm CLR
13:25 12.6 °C -1.7 °C 1014.3 hPa WSW 12.9 km/h 24.1 km/h 37% 0.0 mm CLR
13:30 12.7 °C -2.0 °C 1014.3 hPa SW 12.9 km/h 22.5 km/h 36% 0.0 mm CLR
13:35 12.8 °C -1.6 °C 1013.9 hPa SW 12.9 km/h 22.5 km/h 37% 0.0 mm CLR
13:40 12.8 °C -1.6 °C 1013.9 hPa SW 11.1 km/h 16.7 km/h 37% 0.0 mm CLR
13:45 12.9 °C -1.5 °C 1013.9 hPa WSW 11.3 km/h 19.3 km/h 37% 0.0 mm CLR
13:50 12.9 °C -1.4 °C 1013.5 hPa WSW 11.1 km/h 17.2 km/h 37% 0.0 mm CLR
13:55 13.1 °C -1.3 °C 1013.5 hPa WSW 11.1 km/h 22.2 km/h 37% 0.0 mm CLR
14:00 13.2 °C -1.9 °C 1013.5 hPa WSW 12.9 km/h 25.7 km/h 35% 0.0 mm CLR
14:05 13.3 °C -1.5 °C 1013.2 hPa WSW 12.9 km/h 22.5 km/h 36% 0.0 mm CLR
14:10 13.3 °C -1.5 °C 1013.2 hPa West 12.9 km/h 22.5 km/h 36% 0.0 mm CLR
14:15 13.3 °C -1.5 °C 1013.2 hPa WSW 12.9 km/h 20.9 km/h 36% 0.0 mm CLR
14:19 13.1 °C -1.7 °C 1012.8 hPa SSW 11.1 km/h 18.5 km/h 36% 0.0 mm CLR
14:25 13.0 °C -1.7 °C 1012.8 hPa SW 11.1 km/h 20.4 km/h 36% 0.0 mm CLR
14:29 12.9 °C -1.4 °C 1012.8 hPa SSW 13.7 km/h 16.1 km/h 37% 0.0 mm CLR
14:35 12.9 °C -1.4 °C 1012.6 hPa SSW 12.9 km/h 20.9 km/h 37% 0.0 mm CLR
14:40 12.9 °C -1.1 °C 1012.6 hPa SW 11.3 km/h 20.9 km/h 38% 0.0 mm CLR
14:45 13.1 °C -1.3 °C 1012.6 hPa SW 11.1 km/h 18.5 km/h 37% 0.0 mm CLR
14:50 13.0 °C -1.4 °C 1012.2 hPa SW 11.9 km/h 16.7 km/h 37% 0.0 mm CLR
14:55 13.1 °C -1.3 °C 1012.2 hPa SW 11.3 km/h 19.3 km/h 37% 0.0 mm CLR
15:00 13.1 °C -1.3 °C 1012.2 hPa SW 11.3 km/h 24.1 km/h 37% 0.0 mm CLR
15:05 13.1 °C -1.3 °C 1012.2 hPa SW 11.3 km/h 20.9 km/h 37% 0.0 mm CLR
15:10 13.1 °C -1.3 °C 1012.2 hPa SW 13.0 km/h 16.7 km/h 37% 0.0 mm CLR
15:15 13.0 °C -1.4 °C 1012.2 hPa SW 13.0 km/h 13.0 km/h 37% 0.0 mm CLR
15:20 13.1 °C -1.3 °C 1012.0 hPa WSW 10.3 km/h 20.4 km/h 37% 0.0 mm CLR
15:25 13.3 °C -1.1 °C 1012.0 hPa WSW 10.3 km/h 24.1 km/h 37% 0.0 mm CLR
15:29 13.7 °C -1.1 °C 1012.0 hPa West 11.9 km/h 24.1 km/h 36% 0.0 mm CLR
15:35 13.8 °C -1.1 °C 1011.9 hPa West 11.3 km/h 33.8 km/h 36% 0.0 mm CLR
15:39 13.8 °C -1.1 °C 1011.9 hPa WNW 14.8 km/h 25.9 km/h 36% 0.0 mm CLR
15:45 13.9 °C -0.9 °C 1011.9 hPa West 14.5 km/h 20.9 km/h 36% 0.0 mm CLR
15:49 13.9 °C -0.9 °C 1011.8 hPa WNW 14.0 km/h 22.2 km/h 36% 0.0 mm CLR
15:55 13.9 °C -0.9 °C 1011.8 hPa WNW 14.5 km/h 25.7 km/h 36% 0.0 mm CLR
16:00 13.8 °C -1.0 °C 1011.8 hPa WNW 16.1 km/h 32.2 km/h 36% 0.0 mm CLR
16:05 13.8 °C -1.1 °C 1011.6 hPa WNW 16.1 km/h 27.4 km/h 36% 0.0 mm CLR
16:10 13.8 °C -1.1 °C 1011.6 hPa WNW 16.1 km/h 30.6 km/h 36% 0.0 mm CLR
16:15 13.8 °C -1.1 °C 1011.6 hPa WNW 16.1 km/h 30.6 km/h 36% 0.0 mm CLR
16:20 13.9 °C -0.9 °C 1011.6 hPa WNW 16.1 km/h 30.6 km/h 36% 0.0 mm CLR
16:25 13.9 °C -0.9 °C 1011.6 hPa WNW 16.1 km/h 33.8 km/h 36% 0.0 mm CLR
16:29 13.9 °C -0.9 °C 1011.6 hPa WNW 16.4 km/h 13.0 km/h 36% 0.0 mm CLR
16:35 13.9 °C -0.9 °C 1011.6 hPa WNW 16.1 km/h 20.9 km/h 36% 0.0 mm CLR
16:40 13.9 °C -0.9 °C 1011.6 hPa NW 10.3 km/h 25.9 km/h 36% 0.0 mm CLR
16:45 13.9 °C -0.9 °C 1011.6 hPa WNW 10.3 km/h 25.9 km/h 36% 0.0 mm CLR
16:50 13.9 °C -0.9 °C 1011.5 hPa WNW 14.5 km/h 24.1 km/h 36% 0.0 mm CLR
16:55 13.9 °C -0.9 °C 1011.5 hPa WNW 15.6 km/h 16.7 km/h 36% 0.0 mm CLR
17:00 13.9 °C -0.9 °C 1011.5 hPa WNW 14.5 km/h 27.4 km/h 36% 0.0 mm CLR
17:05 13.9 °C -0.9 °C 1011.4 hPa WNW 14.5 km/h 27.4 km/h 36% 0.0 mm CLR
17:09 13.9 °C -0.9 °C 1011.4 hPa West 17.2 km/h 24.1 km/h 36% 0.0 mm CLR
17:15 13.9 °C -0.9 °C 1011.4 hPa WNW 16.1 km/h 25.7 km/h 36% 0.0 mm CLR
17:20 13.8 °C -0.7 °C 1011.3 hPa WSW 15.6 km/h 13.0 km/h 37% 0.0 mm CLR
17:25 13.6 °C -0.5 °C 1011.3 hPa WSW 14.5 km/h 12.9 km/h 38% 0.0 mm CLR
17:29 13.3 °C -0.4 °C 1011.3 hPa WSW 6.9 km/h 11.1 km/h 39% 0.0 mm CLR
17:35 13.2 °C -0.1 °C 1011.2 hPa SSW 6.9 km/h 9.3 km/h 40% 0.0 mm CLR
17:40 13.1 °C -0.2 °C 1011.2 hPa SW 6.9 km/h 9.3 km/h 40% 0.0 mm CLR
17:45 13.1 °C -0.2 °C 1011.2 hPa SW 6.9 km/h 7.4 km/h 40% 0.0 mm CLR
17:50 13.1 °C -0.2 °C 1011.0 hPa WNW 6.4 km/h 9.3 km/h 40% 0.0 mm CLR
17:55 13.2 °C -0.8 °C 1011.0 hPa WNW 6.4 km/h 20.4 km/h 38% 0.0 mm CLR
17:59 13.4 °C -1.4 °C 1011.0 hPa West 8.7 km/h 37.0 km/h 36% 0.0 mm CLR
18:05 13.5 °C -1.3 °C 1011.0 hPa NNW 8.7 km/h 18.5 km/h 36% 0.0 mm CLR
18:10 13.4 °C -1.4 °C 1011.0 hPa WNW 19.0 km/h 22.2 km/h 36% 0.0 mm CLR
18:15 13.3 °C -1.1 °C 1011.0 hPa WNW 19.3 km/h 25.7 km/h 37% 0.0 mm CLR
18:20 13.2 °C -1.2 °C 1011.2 hPa WNW 12.9 km/h 22.5 km/h 37% 0.0 mm CLR
18:25 13.1 °C -0.9 °C 1011.2 hPa WNW 12.9 km/h 20.9 km/h 38% 0.0 mm CLR
18:30 13.1 °C -0.9 °C 1011.2 hPa WNW 8.0 km/h 33.8 km/h 38% 0.0 mm CLR
18:35 13.1 °C -0.9 °C 1010.8 hPa WNW 8.0 km/h 27.4 km/h 38% 0.0 mm CLR
18:40 13.0 °C -1.0 °C 1010.8 hPa West 15.6 km/h 18.5 km/h 38% 0.0 mm CLR
18:45 12.9 °C -0.7 °C 1010.8 hPa WNW 14.5 km/h 19.3 km/h 39% 0.0 mm CLR
18:50 12.9 °C -0.8 °C 1011.0 hPa WNW 11.3 km/h 24.1 km/h 39% 0.0 mm CLR
18:55 12.8 °C -0.8 °C 1011.0 hPa WNW 11.3 km/h 20.9 km/h 39% 0.0 mm CLR
19:00 12.7 °C -0.6 °C 1011.0 hPa West 11.3 km/h 16.1 km/h 40% 0.0 mm CLR
19:05 12.6 °C -0.7 °C 1011.0 hPa West 11.3 km/h 14.5 km/h 40% 0.0 mm CLR
19:10 12.5 °C -0.4 °C 1011.0 hPa WSW 7.6 km/h 16.7 km/h 41% 0.0 mm CLR
19:15 12.5 °C -0.4 °C 1011.0 hPa West 8.0 km/h 20.9 km/h 41% 0.0 mm CLR
19:20 12.5 °C -0.4 °C 1011.1 hPa West 11.3 km/h 16.1 km/h 41% 0.0 mm CLR
19:25 12.5 °C -0.4 °C 1011.1 hPa West 11.3 km/h 25.7 km/h 41% 0.0 mm CLR
19:29 12.5 °C -0.4 °C 1011.1 hPa WSW 10.3 km/h 25.9 km/h 41% 0.0 mm CLR
19:35 12.6 °C -0.3 °C 1011.1 hPa WSW 11.3 km/h 19.3 km/h 41% 0.0 mm CLR
19:40 12.6 °C -0.3 °C 1011.1 hPa NW 12.2 km/h 16.7 km/h 41% 0.0 mm CLR
19:45 12.6 °C -0.3 °C 1011.1 hPa West 12.2 km/h 13.0 km/h 41% 0.0 mm CLR
19:49 12.6 °C -0.3 °C 1011.1 hPa West 9.5 km/h 14.8 km/h 41% 0.0 mm CLR
19:55 12.6 °C -0.3 °C 1011.1 hPa West 9.5 km/h 14.8 km/h 41% 0.0 mm CLR
20:00 12.7 °C -0.3 °C 1011.1 hPa WSW 9.7 km/h 22.5 km/h 41% 0.0 mm CLR
20:05 12.7 °C 0.4 °C 1011.3 hPa WNW 10.0 km/h 18.5 km/h 43% 0.0 mm CLR
20:10 12.7 °C 0.4 °C 1011.3 hPa NW 13.7 km/h 33.3 km/h 43% 0.0 mm CLR
20:15 12.7 °C 0.4 °C 1011.3 hPa WNW 12.9 km/h 33.8 km/h 43% 0.0 mm CLR
20:19 12.7 °C 0.7 °C 1011.1 hPa West 17.2 km/h 16.7 km/h 44% 0.0 mm CLR
20:25 12.6 °C 0.7 °C 1011.1 hPa West 16.1 km/h 27.4 km/h 44% 0.0 mm CLR
20:30 12.6 °C 0.9 °C 1011.1 hPa West 15.6 km/h 24.1 km/h 45% 0.0 mm CLR
20:35 12.5 °C 0.9 °C 1011.0 hPa West 14.5 km/h 30.6 km/h 45% 0.0 mm CLR
20:40 12.4 °C 0.8 °C 1011.0 hPa NW 19.0 km/h 22.2 km/h 45% 0.0 mm CLR
20:45 12.4 °C 1.1 °C 1011.0 hPa WNW 19.3 km/h 32.2 km/h 46% 0.0 mm CLR
20:50 12.3 °C 1.0 °C 1011.1 hPa WNW 17.2 km/h 16.7 km/h 46% 0.0 mm CLR
20:55 12.3 °C 1.0 °C 1011.1 hPa West 17.2 km/h 29.6 km/h 46% 0.0 mm CLR
21:00 12.3 °C 1.0 °C 1011.1 hPa WNW 16.1 km/h 32.2 km/h 46% 0.0 mm CLR
21:05 12.3 °C 1.3 °C 1011.0 hPa West 16.1 km/h 32.2 km/h 47% 0.0 mm CLR
21:09 12.3 °C 1.3 °C 1011.0 hPa NW 18.3 km/h 25.9 km/h 47% 0.0 mm CLR
21:15 12.3 °C 1.3 °C 1011.0 hPa West 19.3 km/h 25.7 km/h 47% 0.0 mm CLR
21:20 12.2 °C 1.2 °C 1010.8 hPa WNW 16.1 km/h 29.6 km/h 47% 0.0 mm CLR
21:25 12.2 °C 1.5 °C 1010.8 hPa WNW 16.1 km/h 29.0 km/h 48% 0.0 mm CLR
21:30 12.2 °C 1.5 °C 1010.8 hPa WSW 16.1 km/h 16.7 km/h 48% 0.0 mm CLR
21:35 12.1 °C 1.4 °C 1010.8 hPa West 16.1 km/h 35.4 km/h 48% 0.0 mm CLR
21:39 12.1 °C 1.4 °C 1010.8 hPa WNW 16.4 km/h 25.9 km/h 48% 0.0 mm CLR
21:45 12.0 °C 1.6 °C 1010.8 hPa WSW 16.4 km/h 22.2 km/h 49% 0.0 mm CLR
21:50 12.0 °C 1.6 °C 1010.7 hPa West 12.9 km/h 32.2 km/h 49% 0.0 mm CLR
21:55 12.0 °C 1.6 °C 1010.7 hPa West 12.9 km/h 24.1 km/h 49% 0.0 mm CLR
22:00 11.9 °C 1.6 °C 1010.7 hPa West 12.9 km/h 20.9 km/h 49% 0.0 mm CLR
22:05 11.9 °C 1.5 °C 1010.6 hPa West 13.0 km/h 25.9 km/h 49% 0.0 mm CLR
22:10 11.9 °C 1.5 °C 1010.6 hPa SW 13.0 km/h 18.5 km/h 49% 0.0 mm CLR
22:15 11.9 °C 1.5 °C 1010.6 hPa West 12.9 km/h 22.5 km/h 49% 0.0 mm CLR
22:20 11.9 °C 1.5 °C 1010.6 hPa WSW 11.9 km/h 14.8 km/h 49% 0.0 mm CLR
22:25 11.9 °C 1.8 °C 1010.6 hPa WSW 11.3 km/h 16.1 km/h 50% 0.0 mm CLR
22:30 11.9 °C 1.8 °C 1010.6 hPa WSW 8.0 km/h 11.3 km/h 50% 0.0 mm CLR
22:35 11.8 °C 1.7 °C 1010.7 hPa West 7.6 km/h 11.1 km/h 50% 0.0 mm CLR
22:39 11.8 °C 1.7 °C 1010.7 hPa SSW 5.8 km/h 11.1 km/h 50% 0.0 mm CLR
22:45 11.7 °C 1.6 °C 1010.7 hPa SW 5.8 km/h 13.0 km/h 50% 0.0 mm CLR
22:50 11.7 °C 1.6 °C 1010.5 hPa SSW 8.4 km/h 7.4 km/h 50% 0.0 mm CLR
22:55 11.7 °C 1.3 °C 1010.5 hPa SW 8.0 km/h 8.0 km/h 49% 0.0 mm CLR
23:00 11.7 °C 1.6 °C 1010.5 hPa SW 4.8 km/h 9.7 km/h 50% 0.0 mm CLR
23:05 11.6 °C 1.5 °C 1010.6 hPa SW 4.8 km/h 8.0 km/h 50% 0.0 mm CLR
23:10 11.5 °C 1.2 °C 1010.6 hPa South 3.2 km/h 8.0 km/h 49% 0.0 mm CLR
23:15 11.4 °C 1.1 °C 1010.6 hPa SE 3.2 km/h 8.0 km/h 49% 0.0 mm CLR
23:19 11.3 °C 1.2 °C 1010.6 hPa ESE 5.0 km/h 11.1 km/h 50% 0.0 mm CLR
23:25 11.3 °C 1.2 °C 1010.6 hPa SSE 4.8 km/h 9.7 km/h 50% 0.0 mm CLR
23:29 11.2 °C 1.2 °C 1010.6 hPa WSW 5.8 km/h 7.4 km/h 50% 0.0 mm CLR
23:35 11.2 °C 1.4 °C 1010.7 hPa SSW 5.8 km/h 5.6 km/h 51% 0.0 mm CLR
23:39 11.2 °C 1.4 °C 1010.7 hPa ENE 3.2 km/h 5.6 km/h 51% 0.0 mm CLR
23:45 11.4 °C 2.2 °C 1010.7 hPa WNW 3.2 km/h 16.7 km/h 53% 0.0 mm CLR
23:49 11.8 °C 2.3 °C 1010.5 hPa WNW 10.3 km/h 27.0 km/h 52% 0.0 mm CLR
23:55 11.9 °C 2.3 °C 1010.5 hPa WNW 10.3 km/h 18.5 km/h 52% 0.0 mm CLR
Murcia-Puente Tocinos, España
Compliments of Weather Underground - 2.75 mb

La estación de MeteoMurcia.com, publica sus datos en los siguientes proyectos:

Weather Underground PWS IMURCIAP2 Meteoclimatic www.awekas.at

W3Counter
Web Analytics